EDW78 LSZH-FSIA

Flight info

Callsign EDW78
Flight time N/A
Altitude 37000
Route DEGES Z2 XEBIX L607 ELMEM N606 GIRIS DCT NIVAS DCT PEVAL DCT AIOSA DCT LATAN DCT SALUN N705 MMA/N0494F390 N705 BOPIX N710 TAKRI P751 LXR M999 JDW G650 RASKA/N0487F400 G650 ULONI UG650 ASM/N0491F390 UA451 SB UR775 HARGA/N0488F400 UM651 MURAL/N0485F410 UG651 KUSUB UM651 ESTOK DCT IMSES DCT ETLOS T155 ROUTY
Aircraft A359/H-SDE2E3GHIJ3J4J5LM1ORWXY/LB1D1

Departure

Time 2026-04-25 22:00
Airport Zürich Airport (LSZH)

Arrival

Time N/A
Airport Seychelles International Airport (FSIA)
Time Latitude Longitude Altitude Speed Heading
2026-04-25 21:29 47.46171 8.55588 1414 ft 0 kts 186°
2026-04-25 21:51 47.46184 8.55590 1414 ft 4 kts 181°
2026-04-25 21:51 47.46210 8.55587 1410 ft 4 kts 166°
2026-04-25 21:51 47.46235 8.55573 1414 ft 4 kts 144°
2026-04-25 21:51 47.46251 8.55546 1413 ft 4 kts 103°
2026-04-25 21:52 47.46253 8.55531 1412 ft 1 kts 96°
2026-04-25 21:56 47.46252 8.55549 1401 ft 5 kts 96°
2026-04-25 21:56 47.46251 8.55565 1394 ft 7 kts 96°
2026-04-25 21:57 47.46244 8.55662 1408 ft 12 kts 96°
2026-04-25 21:57 47.46234 8.55811 1410 ft 17 kts 96°
2026-04-25 21:57 47.46205 8.55990 1417 ft 18 kts 126°
2026-04-25 21:57 47.46120 8.56116 1422 ft 17 kts 137°
2026-04-25 21:58 47.46047 8.56225 1422 ft 11 kts 118°
2026-04-25 21:58 47.46043 8.56258 1423 ft 0 kts 90°
2026-04-25 21:58 47.46043 8.56260 1423 ft 2 kts 88°
2026-04-25 21:58 47.46065 8.56321 1420 ft 11 kts 47°
2026-04-25 21:59 47.46128 8.56405 1421 ft 11 kts 26°
2026-04-25 21:59 47.46185 8.56368 1423 ft 3 kts 319°
2026-04-25 21:59 47.46189 8.56362 1423 ft 6 kts 317°
2026-04-25 22:00 47.46845 8.55470 1408 ft 119 kts 317°
2026-04-25 22:00 47.47566 8.54488 1410 ft 162 kts 318°
2026-04-25 22:00 47.48383 8.53379 1947 ft 154 kts 319°
2026-04-25 22:00 47.49267 8.52473 2410 ft 155 kts 332°
2026-04-25 22:01 47.50201 8.51610 2727 ft 169 kts 326°
2026-04-25 22:01 47.51083 8.50343 2969 ft 186 kts 309°
2026-04-25 22:01 47.51688 8.48549 3242 ft 206 kts 289°
2026-04-25 22:01 47.51858 8.47127 3415 ft 220 kts 276°
2026-04-25 22:02 47.51791 8.43994 3992 ft 233 kts 258°
2026-04-25 22:02 47.50993 8.41959 4623 ft 230 kts 218°
2026-04-25 22:02 47.49551 8.41135 5307 ft 223 kts 181°
2026-04-25 22:02 47.48027 8.41482 5786 ft 231 kts 162°
2026-04-25 22:03 47.46604 8.42606 6292 ft 236 kts 137°
2026-04-25 22:03 47.45748 8.44677 6759 ft 245 kts 103°
2026-04-25 22:03 47.45591 8.47273 7045 ft 263 kts 89°
2026-04-25 22:03 47.45627 8.50050 7437 ft 276 kts 88°
2026-04-25 22:04 47.45664 8.52919 8038 ft 282 kts 89°
2026-04-25 22:04 47.45689 8.55849 8715 ft 287 kts 88°
2026-04-25 22:04 47.45796 8.58807 9413 ft 290 kts 85°
2026-04-25 22:04 47.45933 8.61804 10119 ft 294 kts 85°
2026-04-25 22:05 47.46064 8.64865 10586 ft 306 kts 85°
2026-04-25 22:05 47.46192 8.68051 10878 ft 323 kts 85°
2026-04-25 22:05 47.46327 8.71453 11182 ft 340 kts 85°
2026-04-25 22:05 47.46462 8.75030 11480 ft 356 kts 85°
2026-04-25 22:06 47.46600 8.78765 11774 ft 371 kts 85°
2026-04-25 22:06 47.46595 8.82634 12123 ft 383 kts 95°
2026-04-25 22:06 47.46135 8.86551 12690 ft 389 kts 101°
2026-04-25 22:06 47.45557 8.90481 13277 ft 393 kts 101°
2026-04-25 22:07 47.44977 8.94449 13883 ft 397 kts 100°
2026-04-25 22:07 47.44594 8.97101 14257 ft 399 kts 100°
2026-04-25 22:07 47.43825 9.02438 14968 ft 404 kts 100°
2026-04-25 22:07 47.43237 9.06514 15528 ft 407 kts 100°
2026-04-25 22:08 47.42643 9.10617 16087 ft 410 kts 100°
2026-04-25 22:08 47.42042 9.14756 16626 ft 414 kts 100°
2026-04-25 22:08 47.41564 9.18954 17165 ft 415 kts 92°
2026-04-25 22:08 47.41681 9.23197 17743 ft 414 kts 81°
2026-04-25 22:09 47.42151 9.27409 18290 ft 416 kts 76°
2026-04-25 22:09 47.42777 9.31605 18793 ft 419 kts 74°
2026-04-25 22:09 47.43469 9.35800 19268 ft 421 kts 73°
2026-04-25 22:09 47.44173 9.40013 19764 ft 425 kts 73°
2026-04-25 22:10 47.44869 9.44277 20247 ft 428 kts 73°
2026-04-25 22:10 47.45552 9.48592 20757 ft 432 kts 74°
2026-04-25 22:10 47.46221 9.52945 21270 ft 436 kts 74°
2026-04-25 22:10 47.46825 9.57299 21738 ft 441 kts 78°
2026-04-25 22:11 47.47048 9.61863 22219 ft 449 kts 87°
2026-04-25 22:11 47.46970 9.66501 22735 ft 453 kts 89°
2026-04-25 22:11 47.46775 9.71181 23196 ft 458 kts 90°
2026-04-25 22:11 47.46515 9.75909 23649 ft 463 kts 91°
2026-04-25 22:12 47.46226 9.80676 24004 ft 467 kts 91°
2026-04-25 22:12 47.45932 9.85455 24135 ft 467 kts 91°
2026-04-25 22:12 47.45640 9.90251 24147 ft 468 kts 91°
2026-04-25 22:12 47.45451 9.93425 24144 ft 468 kts 91°
2026-04-25 22:13 47.45075 9.99851 24150 ft 469 kts 91°
2026-04-25 22:13 47.44801 10.04597 24328 ft 471 kts 91°
2026-04-25 22:13 47.44521 10.09483 24849 ft 471 kts 91°
2026-04-25 22:13 47.44244 10.14246 25301 ft 473 kts 91°
2026-04-25 22:14 47.43830 10.19096 25706 ft 478 kts 96°
2026-04-25 22:14 47.43256 10.23950 26123 ft 481 kts 97°
2026-04-25 22:14 47.42630 10.28827 26516 ft 485 kts 98°
2026-04-25 22:14 47.41973 10.33725 26943 ft 488 kts 98°
2026-04-25 22:15 47.41088 10.38577 27312 ft 493 kts 107°
2026-04-25 22:15 47.39694 10.43243 27700 ft 500 kts 117°
2026-04-25 22:15 47.37749 10.47516 28138 ft 503 kts 128°
2026-04-25 22:16 47.32378 10.54163 28868 ft 510 kts 149°
2026-04-25 22:16 47.29289 10.56781 29158 ft 514 kts 151°
2026-04-25 22:16 47.26126 10.59276 29448 ft 516 kts 152°
2026-04-25 22:16 47.22952 10.61712 29786 ft 518 kts 153°
2026-04-25 22:17 47.19726 10.64175 30150 ft 520 kts 152°
2026-04-25 22:17 47.16434 10.66428 30435 ft 522 kts 159°
2026-04-25 22:17 47.13062 10.68380 30872 ft 519 kts 159°
2026-04-25 22:17 47.09691 10.70263 31271 ft 519 kts 160°
2026-04-25 22:18 47.06311 10.72115 31559 ft 519 kts 160°
2026-04-25 22:18 47.02933 10.73949 31982 ft 516 kts 161°
2026-04-25 22:18 46.99576 10.75776 32450 ft 514 kts 160°
2026-04-25 22:18 46.96277 10.77614 32809 ft 513 kts 160°
2026-04-25 22:19 46.92949 10.79495 33140 ft 512 kts 160°
2026-04-25 22:19 46.89635 10.81376 33451 ft 511 kts 160°
2026-04-25 22:19 46.86312 10.83261 33774 ft 510 kts 160°
2026-04-25 22:19 46.82998 10.85136 34125 ft 509 kts 160°
2026-04-25 22:20 46.79785 10.87286 34402 ft 509 kts 152°
2026-04-25 22:20 46.76800 10.90055 34662 ft 509 kts 143°
2026-04-25 22:20 46.74144 10.93456 34870 ft 509 kts 134°
2026-04-25 22:20 46.71697 10.97195 35092 ft 509 kts 133°
2026-04-25 22:21 46.69328 11.01025 35315 ft 508 kts 131°
2026-04-25 22:21 46.67027 11.04840 35577 ft 506 kts 131°
2026-04-25 22:21 46.64715 11.08693 35769 ft 506 kts 131°
2026-04-25 22:21 46.62392 11.12549 35918 ft 507 kts 131°
2026-04-25 22:22 46.60056 11.16398 36115 ft 507 kts 131°
2026-04-25 22:22 46.57710 11.20238 36317 ft 506 kts 132°
2026-04-25 22:22 46.55366 11.24056 36482 ft 506 kts 132°
2026-04-25 22:22 46.53025 11.27854 36600 ft 505 kts 132°
2026-04-25 22:23 46.50677 11.31655 36770 ft 505 kts 132°
2026-04-25 22:23 46.48332 11.35446 36957 ft 505 kts 132°
2026-04-25 22:23 46.45974 11.39252 37014 ft 507 kts 132°
2026-04-25 22:24 46.41226 11.46901 37026 ft 511 kts 132°
2026-04-25 22:24 46.36505 11.54490 37080 ft 510 kts 133°
2026-04-25 22:25 46.31746 11.62120 37069 ft 510 kts 133°
2026-04-25 22:25 46.26985 11.69733 37064 ft 510 kts 133°
2026-04-25 22:26 46.22211 11.77341 37064 ft 510 kts 133°
2026-04-25 22:26 46.17436 11.84930 37067 ft 510 kts 133°
2026-04-25 22:27 46.12688 11.92454 37051 ft 510 kts 133°
2026-04-25 22:27 46.07904 12.00016 37052 ft 510 kts 133°
2026-04-25 22:28 46.03114 12.07568 37051 ft 511 kts 133°
2026-04-25 22:28 45.98309 12.15121 37041 ft 512 kts 133°
2026-04-25 22:29 45.93525 12.22620 37041 ft 512 kts 133°
2026-04-25 22:29 45.88715 12.30157 37037 ft 512 kts 133°
2026-04-25 22:30 45.81732 12.41781 37041 ft 513 kts 131°
2026-04-25 22:30 45.77855 12.48305 37039 ft 513 kts 131°
2026-04-25 22:31 45.72439 12.57317 37043 ft 513 kts 131°
2026-04-25 22:31 45.67763 12.65034 37044 ft 513 kts 132°
2026-04-25 22:32 45.63066 12.72760 37042 ft 515 kts 132°
2026-04-25 22:32 45.58362 12.80478 37044 ft 515 kts 132°
2026-04-25 22:33 45.53657 12.88180 37051 ft 515 kts 132°
2026-04-25 22:33 45.48944 12.95872 37045 ft 515 kts 132°
2026-04-25 22:34 45.44204 13.03587 37051 ft 517 kts 132°
2026-04-25 22:34 45.39489 13.11241 37047 ft 517 kts 132°
2026-04-25 22:35 45.34749 13.18914 37049 ft 516 kts 132°
2026-04-25 22:35 45.29831 13.26335 37061 ft 515 kts 138°
2026-04-25 22:36 45.24538 13.33231 37050 ft 516 kts 139°
2026-04-25 22:36 45.19217 13.39984 37051 ft 517 kts 140°
2026-04-25 22:37 45.13855 13.46762 37053 ft 514 kts 140°
2026-04-25 22:37 45.08523 13.53503 37061 ft 512 kts 140°
2026-04-25 22:38 45.03192 13.60234 37053 ft 514 kts 140°
2026-04-25 22:38 44.97880 13.66925 37051 ft 514 kts 140°
2026-04-25 22:39 44.92536 13.73641 37040 ft 513 kts 141°
2026-04-25 22:39 44.87208 13.80319 37046 ft 512 kts 141°
2026-04-25 22:40 44.82777 13.85859 37047 ft 511 kts 141°
2026-04-25 22:40 44.77448 13.92504 37049 ft 511 kts 141°
2026-04-25 22:41 44.72111 13.99143 37049 ft 511 kts 141°
2026-04-25 22:41 44.66778 14.05760 37050 ft 511 kts 141°
2026-04-25 22:42 44.61448 14.12359 37052 ft 510 kts 142°
2026-04-25 22:42 44.56158 14.18888 37052 ft 509 kts 142°
2026-04-25 22:43 44.50835 14.25443 37057 ft 509 kts 142°
2026-04-25 22:43 44.45505 14.31989 37064 ft 508 kts 141°
2026-04-25 22:44 44.40192 14.38500 37042 ft 507 kts 142°
2026-04-25 22:44 44.34906 14.44961 37065 ft 507 kts 142°
2026-04-25 22:45 44.29593 14.51436 37067 ft 507 kts 142°
2026-04-25 22:45 44.24279 14.57899 37057 ft 506 kts 142°
2026-04-25 22:46 44.18962 14.64348 37057 ft 505 kts 142°
2026-04-25 22:46 44.13650 14.70777 37062 ft 505 kts 142°
2026-04-25 22:47 44.08335 14.77192 37061 ft 505 kts 142°
2026-04-25 22:47 44.03055 14.83549 37058 ft 505 kts 142°
2026-04-25 22:48 43.97736 14.89937 37059 ft 505 kts 142°
2026-04-25 22:48 43.92408 14.96322 37062 ft 505 kts 142°
2026-04-25 22:49 43.87080 15.02690 37063 ft 505 kts 142°
2026-04-25 22:49 43.81743 15.09053 37062 ft 505 kts 142°
2026-04-25 22:50 43.76410 15.15397 37067 ft 505 kts 142°
2026-04-25 22:50 43.71074 15.21728 37050 ft 505 kts 142°
2026-04-25 22:51 43.65765 15.28011 37066 ft 505 kts 142°
2026-04-25 22:51 43.60423 15.34319 37054 ft 505 kts 142°
2026-04-25 22:52 43.55083 15.40609 37191 ft 502 kts 142°
2026-04-25 22:52 43.52440 15.43718 37567 ft 497 kts 142°
2026-04-25 22:52 43.50700 15.45764 37754 ft 496 kts 142°
2026-04-25 22:53 43.47192 15.49880 37995 ft 495 kts 142°
2026-04-25 22:53 43.44570 15.52951 38143 ft 494 kts 142°
2026-04-25 22:53 43.41952 15.56013 38270 ft 494 kts 142°
2026-04-25 22:53 43.39326 15.59082 38414 ft 493 kts 142°
2026-04-25 22:54 43.36742 15.62099 38542 ft 493 kts 142°
2026-04-25 22:54 43.34125 15.65150 38655 ft 493 kts 142°
2026-04-25 22:54 43.31517 15.68187 38807 ft 491 kts 142°
2026-04-25 22:54 43.28911 15.71219 38908 ft 491 kts 142°
2026-04-25 22:55 43.23692 15.77281 39042 ft 491 kts 142°
2026-04-25 22:55 43.18444 15.83361 39060 ft 495 kts 142°
2026-04-25 22:56 43.13167 15.89459 39059 ft 497 kts 142°
2026-04-25 22:56 43.07885 15.95551 39060 ft 496 kts 142°
2026-04-25 22:57 43.02603 16.01630 39057 ft 496 kts 142°
2026-04-25 22:57 42.97322 16.07692 39060 ft 496 kts 142°
2026-04-25 22:58 42.92033 16.13748 39059 ft 496 kts 142°
2026-04-25 22:58 42.86745 16.19790 39060 ft 496 kts 142°
2026-04-25 22:59 42.81490 16.25781 39061 ft 494 kts 142°
2026-04-25 22:59 42.76208 16.31789 39061 ft 494 kts 142°
2026-04-25 23:00 42.70923 16.37785 39064 ft 495 kts 142°
2026-04-25 23:00 42.65652 16.43752 39064 ft 495 kts 142°
2026-04-25 23:01 42.60358 16.49731 39060 ft 494 kts 142°
2026-04-25 23:01 42.55075 16.55685 39061 ft 493 kts 142°
2026-04-25 23:02 42.49790 16.61628 39061 ft 493 kts 142°
2026-04-25 23:02 42.44505 16.67556 39061 ft 493 kts 142°
2026-04-25 23:03 42.39212 16.73481 39056 ft 494 kts 142°
2026-04-25 23:03 42.33920 16.79390 39061 ft 493 kts 142°
2026-04-25 23:04 42.29524 16.84289 39058 ft 492 kts 142°
2026-04-25 23:04 42.23370 16.91133 39061 ft 492 kts 142°
2026-04-25 23:05 42.18084 16.96997 39061 ft 492 kts 142°
2026-04-25 23:05 42.12792 17.02854 39063 ft 492 kts 142°
2026-04-25 23:06 42.07503 17.08695 39062 ft 492 kts 142°
2026-04-25 23:06 42.02194 17.14545 39064 ft 493 kts 142°
2026-04-25 23:07 41.96888 17.20379 39061 ft 493 kts 142°
2026-04-25 23:07 41.91339 17.25743 39061 ft 491 kts 152°
2026-04-25 23:08 41.85383 17.30080 39064 ft 490 kts 154°
2026-04-25 23:08 41.79319 17.34259 39064 ft 489 kts 154°
2026-04-25 23:09 41.73245 17.38416 39064 ft 490 kts 154°
2026-04-25 23:09 41.67184 17.42579 39064 ft 490 kts 153°
2026-04-25 23:10 41.61150 17.46730 39067 ft 490 kts 153°
2026-04-25 23:10 41.55079 17.50902 39067 ft 490 kts 153°
2026-04-25 23:11 41.49010 17.55063 39067 ft 490 kts 153°
2026-04-25 23:11 41.42938 17.59217 39067 ft 490 kts 153°
2026-04-25 23:12 41.36860 17.63365 39064 ft 490 kts 153°
2026-04-25 23:12 41.30789 17.67499 39067 ft 490 kts 153°
2026-04-25 23:13 41.24708 17.71632 39064 ft 490 kts 154°
2026-04-25 23:13 41.18628 17.75755 39065 ft 490 kts 153°
2026-04-25 23:14 41.12587 17.79843 39067 ft 491 kts 153°
2026-04-25 23:14 41.06495 17.83958 39067 ft 491 kts 153°
2026-04-25 23:15 41.00408 17.88060 39067 ft 491 kts 153°
2026-04-25 23:15 40.94319 17.92154 39064 ft 491 kts 153°
2026-04-25 23:16 40.88218 17.96249 39064 ft 490 kts 153°
2026-04-25 23:16 40.82133 18.00325 39061 ft 490 kts 153°
2026-04-25 23:17 40.76072 18.04376 39046 ft 491 kts 153°
2026-04-25 23:17 40.69976 18.08441 39049 ft 490 kts 153°
2026-04-25 23:18 40.63890 18.12493 39050 ft 490 kts 153°
2026-04-25 23:18 40.57806 18.16534 39050 ft 490 kts 153°
2026-04-25 23:19 40.51758 18.20543 39051 ft 490 kts 153°
2026-04-25 23:19 40.45671 18.24569 39063 ft 489 kts 153°
2026-04-25 23:20 40.39585 18.28587 39066 ft 489 kts 153°
2026-04-25 23:20 40.33500 18.32597 39067 ft 489 kts 153°
2026-04-25 23:21 40.27405 18.36604 39066 ft 489 kts 153°
2026-04-25 23:21 40.21359 18.40571 39064 ft 489 kts 153°
2026-04-25 23:22 40.15269 18.44559 39063 ft 490 kts 153°
2026-04-25 23:23 40.06088 18.50556 39061 ft 491 kts 153°
2026-04-25 23:23 39.99966 18.54545 39064 ft 491 kts 153°
2026-04-25 23:24 39.93880 18.58502 39062 ft 491 kts 153°
2026-04-25 23:24 39.87756 18.62477 39061 ft 491 kts 153°
2026-04-25 23:25 39.81636 18.66440 39061 ft 491 kts 153°
2026-04-25 23:25 39.75506 18.70402 39062 ft 492 kts 152°
2026-04-25 23:26 39.69375 18.74357 39056 ft 492 kts 153°
2026-04-25 23:26 39.64274 18.77641 39056 ft 492 kts 153°
2026-04-25 23:27 39.58125 18.81593 39059 ft 493 kts 152°
2026-04-25 23:27 39.51973 18.85539 39053 ft 493 kts 152°
2026-04-25 23:28 39.45851 18.89458 39058 ft 494 kts 152°
2026-04-25 23:28 39.39682 18.93399 39060 ft 494 kts 152°
2026-04-25 23:29 39.33520 18.97328 39062 ft 494 kts 152°
2026-04-25 23:29 39.27705 19.01971 39056 ft 490 kts 139°
2026-04-25 23:30 39.22505 19.07596 39056 ft 490 kts 137°
2026-04-25 23:30 39.17387 19.13405 39051 ft 490 kts 136°
2026-04-25 23:31 39.12270 19.19222 39044 ft 490 kts 136°
2026-04-25 23:31 39.07134 19.25013 39042 ft 491 kts 136°
2026-04-25 23:32 39.01983 19.30790 39050 ft 491 kts 137°
2026-04-25 23:32 38.96826 19.36557 39050 ft 491 kts 137°
2026-04-25 23:33 38.91673 19.42308 39060 ft 490 kts 137°
2026-04-25 23:33 38.86551 19.48015 39054 ft 491 kts 136°
2026-04-25 23:34 38.81388 19.53757 39053 ft 491 kts 136°
2026-04-25 23:34 38.76213 19.59501 39051 ft 492 kts 136°
2026-04-25 23:35 38.71026 19.65248 39050 ft 492 kts 136°
2026-04-25 23:35 38.65836 19.70985 39048 ft 492 kts 136°
2026-04-25 23:36 38.60681 19.76672 39048 ft 492 kts 136°
2026-04-25 23:36 38.55485 19.82392 39054 ft 493 kts 136°
2026-04-25 23:37 38.50277 19.88116 39053 ft 494 kts 136°
2026-04-25 23:37 38.45056 19.93842 39050 ft 495 kts 136°
2026-04-25 23:38 38.39825 19.99567 39051 ft 495 kts 136°
2026-04-25 23:38 38.34631 20.05240 39051 ft 495 kts 136°
2026-04-25 23:39 38.29396 20.10948 39043 ft 495 kts 137°
2026-04-25 23:39 38.24157 20.16648 39052 ft 495 kts 137°
2026-04-25 23:40 38.18895 20.22362 39049 ft 498 kts 137°
2026-04-25 23:40 38.13658 20.28038 39049 ft 498 kts 137°
2026-04-25 23:41 38.08380 20.33746 39048 ft 498 kts 137°
2026-04-25 23:41 38.03100 20.39446 39044 ft 498 kts 137°
2026-04-25 23:42 37.97816 20.45139 39032 ft 498 kts 137°
2026-04-25 23:42 37.92531 20.50823 39038 ft 499 kts 137°
2026-04-25 23:43 37.87226 20.56517 39053 ft 500 kts 137°
2026-04-25 23:43 37.81918 20.62202 39033 ft 500 kts 137°
2026-04-25 23:44 37.76635 20.67851 39035 ft 500 kts 137°
2026-04-25 23:44 37.71319 20.73524 39037 ft 500 kts 137°
2026-04-25 23:45 37.65998 20.79189 39037 ft 500 kts 137°
2026-04-25 23:45 37.60662 20.84860 39034 ft 501 kts 137°
2026-04-25 23:46 37.55320 20.90527 39035 ft 501 kts 137°
2026-04-25 23:46 37.50017 20.96140 39034 ft 501 kts 137°
2026-04-25 23:47 37.44670 21.01790 39027 ft 501 kts 137°
2026-04-25 23:47 37.39322 21.07432 39029 ft 502 kts 138°
2026-04-25 23:48 37.33958 21.13078 39031 ft 502 kts 138°
2026-04-25 23:48 37.28593 21.18715 39025 ft 503 kts 138°
2026-04-25 23:49 37.23242 21.24325 39023 ft 503 kts 138°
2026-04-25 23:49 37.17864 21.29953 39026 ft 503 kts 138°
2026-04-25 23:50 37.12515 21.35540 39020 ft 503 kts 139°
2026-04-25 23:50 37.07121 21.41164 39020 ft 504 kts 139°
2026-04-25 23:51 37.01732 21.46771 39020 ft 504 kts 139°
2026-04-25 23:51 36.96327 21.52385 39021 ft 504 kts 139°
2026-04-25 23:52 36.90924 21.57985 39022 ft 504 kts 139°
2026-04-25 23:52 36.85555 21.63540 39022 ft 504 kts 139°
2026-04-25 23:53 36.80145 21.69128 39016 ft 504 kts 139°
2026-04-25 23:53 36.74731 21.74708 39018 ft 505 kts 139°
2026-04-25 23:54 36.69312 21.80282 39025 ft 505 kts 139°
2026-04-25 23:54 36.63917 21.85823 39016 ft 505 kts 139°
2026-04-25 23:55 36.58481 21.91395 39014 ft 506 kts 139°
2026-04-25 23:55 36.53034 21.96967 39009 ft 506 kts 139°
2026-04-25 23:56 36.47584 22.02531 39010 ft 507 kts 139°
2026-04-25 23:56 36.42127 22.08092 39006 ft 507 kts 139°
2026-04-25 23:57 36.36701 22.13612 39016 ft 507 kts 140°
2026-04-25 23:57 36.31233 22.19165 39006 ft 507 kts 140°
2026-04-25 23:58 36.25771 22.24700 39007 ft 507 kts 140°
2026-04-25 23:58 36.20300 22.30234 39006 ft 507 kts 140°
2026-04-25 23:59 36.14825 22.35762 39004 ft 507 kts 140°
2026-04-25 23:59 36.09386 22.41242 39004 ft 507 kts 140°
2026-04-26 00:00 36.03893 22.46769 39010 ft 507 kts 140°
2026-04-26 00:00 35.98411 22.52272 39002 ft 508 kts 141°
2026-04-26 00:01 35.92948 22.57748 39003 ft 509 kts 141°
2026-04-26 00:01 35.87440 22.63258 38998 ft 509 kts 141°
2026-04-26 00:02 35.81931 22.68760 38998 ft 509 kts 141°
2026-04-26 00:02 35.76425 22.74247 38993 ft 509 kts 141°
2026-04-26 00:03 35.70948 22.79696 38997 ft 509 kts 141°
2026-04-26 00:03 35.65436 22.85171 38990 ft 509 kts 141°
2026-04-26 00:04 35.59925 22.90633 38990 ft 509 kts 141°
2026-04-26 00:04 35.54407 22.96092 38990 ft 509 kts 141°
2026-04-26 00:05 35.48886 23.01544 38985 ft 509 kts 141°
2026-04-26 00:05 35.43365 23.06987 38985 ft 509 kts 141°
2026-04-26 00:06 35.37867 23.12398 38984 ft 511 kts 142°
2026-04-26 00:06 35.32307 23.17859 38982 ft 513 kts 142°
2026-04-26 00:07 35.26731 23.23326 38979 ft 513 kts 142°
2026-04-26 00:07 35.21155 23.28784 38971 ft 513 kts 142°
2026-04-26 00:08 35.15572 23.34238 38971 ft 513 kts 142°
2026-04-26 00:08 35.09980 23.39691 38962 ft 514 kts 142°
2026-04-26 00:09 35.04422 23.45101 38958 ft 512 kts 143°
2026-04-26 00:09 34.98832 23.50533 38947 ft 515 kts 142°
2026-04-26 00:10 34.93219 23.55977 38945 ft 516 kts 143°
2026-04-26 00:10 34.87600 23.61417 38946 ft 516 kts 142°
2026-04-26 00:11 34.81984 23.66845 38930 ft 515 kts 143°
2026-04-26 00:11 34.76390 23.72241 38933 ft 514 kts 143°
2026-04-26 00:12 34.70781 23.77643 38933 ft 513 kts 143°
2026-04-26 00:12 34.65183 23.83024 38930 ft 512 kts 143°
2026-04-26 00:13 34.59598 23.88383 38925 ft 512 kts 143°
2026-04-26 00:13 34.54037 23.93711 38916 ft 512 kts 144°
2026-04-26 00:14 34.49374 23.98170 38921 ft 513 kts 144°
2026-04-26 00:14 34.43762 24.03528 38922 ft 513 kts 144°
2026-04-26 00:15 34.37242 24.09742 38919 ft 513 kts 144°
2026-04-26 00:15 34.32540 24.14215 38920 ft 513 kts 144°
2026-04-26 00:16 34.26962 24.19513 38917 ft 513 kts 144°
2026-04-26 00:16 34.21340 24.24843 38917 ft 514 kts 145°
2026-04-26 00:17 34.15682 24.30197 38909 ft 516 kts 145°
2026-04-26 00:17 34.10058 24.35511 38910 ft 516 kts 145°
2026-04-26 00:18 34.04396 24.40853 38909 ft 516 kts 145°
2026-04-26 00:18 33.98741 24.46189 38906 ft 517 kts 144°
2026-04-26 00:19 33.93310 24.51903 38901 ft 519 kts 141°
2026-04-26 00:19 33.88017 24.57774 38911 ft 521 kts 141°
2026-04-26 00:20 33.82646 24.63648 38907 ft 521 kts 142°
2026-04-26 00:20 33.77240 24.69465 38904 ft 521 kts 142°
2026-04-26 00:21 33.71822 24.75256 38905 ft 521 kts 142°
2026-04-26 00:21 33.66431 24.81007 38907 ft 521 kts 142°
2026-04-26 00:22 33.61003 24.86791 38901 ft 522 kts 142°
2026-04-26 00:22 33.55558 24.92585 38904 ft 523 kts 142°
2026-04-26 00:23 33.50105 24.98378 38907 ft 523 kts 142°
2026-04-26 00:23 33.44654 25.04159 38901 ft 524 kts 143°
2026-04-26 00:24 33.39216 25.09914 38905 ft 525 kts 143°
2026-04-26 00:24 33.33747 25.15694 38901 ft 526 kts 143°
2026-04-26 00:25 33.28254 25.21489 38901 ft 525 kts 143°
2026-04-26 00:25 33.22767 25.27267 38902 ft 525 kts 143°
2026-04-26 00:26 33.17274 25.33041 38901 ft 525 kts 143°
2026-04-26 00:26 33.11768 25.38819 38905 ft 527 kts 143°
2026-04-26 00:27 33.06278 25.44569 38903 ft 528 kts 143°
2026-04-26 00:27 33.00756 25.50345 38895 ft 528 kts 144°
2026-04-26 00:28 32.95211 25.56132 38908 ft 530 kts 144°
2026-04-26 00:28 32.89667 25.61909 38892 ft 530 kts 144°
2026-04-26 00:29 32.84115 25.67686 38899 ft 530 kts 144°
2026-04-26 00:29 32.78598 25.73417 38901 ft 530 kts 144°
2026-04-26 00:30 32.73039 25.79179 38906 ft 530 kts 144°
2026-04-26 00:30 32.67478 25.84935 38901 ft 530 kts 144°
2026-04-26 00:31 32.61898 25.90698 38911 ft 531 kts 144°
2026-04-26 00:31 32.56321 25.96450 38901 ft 531 kts 145°
2026-04-26 00:32 32.50773 26.02162 38912 ft 532 kts 145°
2026-04-26 00:32 32.42386 26.10780 38914 ft 532 kts 145°
2026-04-26 00:33 32.36783 26.16526 38910 ft 532 kts 145°
2026-04-26 00:33 32.31168 26.22271 38917 ft 534 kts 145°
2026-04-26 00:34 32.25580 26.27980 38921 ft 534 kts 145°
2026-04-26 00:34 32.19946 26.33728 38924 ft 534 kts 145°
2026-04-26 00:35 32.14312 26.39466 38928 ft 534 kts 145°
2026-04-26 00:35 32.08680 26.45191 38928 ft 534 kts 145°
2026-04-26 00:36 32.03043 26.50912 38933 ft 534 kts 146°
2026-04-26 00:36 31.97431 26.56598 38909 ft 534 kts 146°
2026-04-26 00:37 31.91799 26.62295 38933 ft 533 kts 146°
2026-04-26 00:37 31.86172 26.67977 38942 ft 532 kts 146°
2026-04-26 00:38 31.80542 26.73651 38943 ft 533 kts 146°
2026-04-26 00:38 31.74942 26.79287 38916 ft 532 kts 147°
2026-04-26 00:39 31.69303 26.84953 38948 ft 533 kts 147°
2026-04-26 00:39 31.63666 26.90607 38948 ft 533 kts 147°
2026-04-26 00:40 31.58019 26.96262 38958 ft 533 kts 147°
2026-04-26 00:40 31.52373 27.01907 38957 ft 533 kts 147°
2026-04-26 00:41 31.46758 27.07511 38963 ft 533 kts 147°
2026-04-26 00:41 31.41108 27.13143 38954 ft 533 kts 148°
2026-04-26 00:42 31.35433 27.18787 38959 ft 535 kts 148°
2026-04-26 00:42 31.29382 27.23555 38967 ft 515 kts 162°
2026-04-26 00:43 31.23009 27.27198 38965 ft 511 kts 165°
2026-04-26 00:43 31.16537 27.30673 38966 ft 511 kts 165°
2026-04-26 00:44 31.10069 27.34132 38970 ft 512 kts 166°
2026-04-26 00:44 31.03574 27.37625 38972 ft 514 kts 166°
2026-04-26 00:45 30.97076 27.41137 38974 ft 514 kts 166°
2026-04-26 00:45 30.90878 27.45482 38977 ft 532 kts 153°
2026-04-26 00:46 30.84995 27.50778 38973 ft 536 kts 151°
2026-04-26 00:46 30.79160 27.56239 38974 ft 539 kts 151°
2026-04-26 00:47 30.73299 27.61713 38981 ft 540 kts 151°
2026-04-26 00:47 30.67419 27.67167 38980 ft 540 kts 152°
2026-04-26 00:48 30.61577 27.72557 38973 ft 540 kts 152°
2026-04-26 00:48 30.55684 27.77980 38974 ft 540 kts 152°
2026-04-26 00:49 30.49800 27.83389 38966 ft 540 kts 152°
2026-04-26 00:49 30.43882 27.88818 38971 ft 542 kts 152°
2026-04-26 00:50 30.37969 27.94238 38969 ft 542 kts 152°
2026-04-26 00:50 30.32090 27.99620 38972 ft 542 kts 152°
2026-04-26 00:51 30.26168 28.05029 38971 ft 542 kts 152°
2026-04-26 00:51 30.20242 28.10434 38972 ft 542 kts 152°
2026-04-26 00:52 30.14318 28.15830 38974 ft 542 kts 152°
2026-04-26 00:52 30.08397 28.21213 38972 ft 541 kts 152°
2026-04-26 00:53 30.02476 28.26588 38971 ft 541 kts 152°
2026-04-26 00:53 29.96548 28.31961 38971 ft 541 kts 152°
2026-04-26 00:54 29.90658 28.37291 38951 ft 541 kts 152°
2026-04-26 00:54 29.85078 28.43303 38979 ft 562 kts 140°
2026-04-26 00:55 29.80128 28.50383 38975 ft 569 kts 136°
2026-04-26 00:55 29.75325 28.57635 38972 ft 569 kts 136°
2026-04-26 00:56 29.70523 28.64885 38971 ft 569 kts 136°
2026-04-26 00:56 29.65727 28.72052 38966 ft 569 kts 137°
2026-04-26 00:57 29.60888 28.79248 38971 ft 569 kts 137°
2026-04-26 00:57 29.56040 28.86431 38974 ft 569 kts 137°
2026-04-26 00:58 29.51184 28.93616 38971 ft 569 kts 137°
2026-04-26 00:58 29.46317 29.00808 38968 ft 570 kts 137°
2026-04-26 00:59 29.41251 29.07648 38976 ft 555 kts 148°
2026-04-26 00:59 29.35360 29.13198 38975 ft 545 kts 154°
2026-04-26 01:00 29.29325 29.18444 38980 ft 543 kts 155°
2026-04-26 01:00 29.23261 29.23643 38980 ft 543 kts 155°
2026-04-26 01:01 29.18230 29.27973 38977 ft 544 kts 154°
2026-04-26 01:01 29.11214 29.34032 38977 ft 544 kts 154°
2026-04-26 01:02 29.05135 29.39142 38976 ft 542 kts 155°
2026-04-26 01:02 29.00009 29.43369 38978 ft 541 kts 156°
2026-04-26 01:03 28.93940 29.48376 38976 ft 542 kts 155°
2026-04-26 01:03 28.87835 29.53431 38978 ft 542 kts 155°
2026-04-26 01:04 28.81729 29.58488 38973 ft 541 kts 155°
2026-04-26 01:04 28.75632 29.63533 38979 ft 540 kts 155°
2026-04-26 01:05 28.69573 29.68538 38977 ft 540 kts 155°
2026-04-26 01:05 28.63479 29.73561 38974 ft 540 kts 155°
2026-04-26 01:06 28.57383 29.78580 38974 ft 540 kts 155°
2026-04-26 01:06 28.51294 29.83586 38936 ft 539 kts 155°
2026-04-26 01:07 28.45221 29.88576 38971 ft 536 kts 155°
2026-04-26 01:07 28.39172 29.93535 38982 ft 536 kts 155°
2026-04-26 01:08 28.33118 29.98488 38965 ft 535 kts 155°
2026-04-26 01:08 28.27098 30.03407 38979 ft 535 kts 155°
2026-04-26 01:09 28.21045 30.08347 38918 ft 535 kts 155°
2026-04-26 01:09 28.15001 30.13275 38963 ft 534 kts 155°
2026-04-26 01:10 28.08979 30.18179 38982 ft 532 kts 155°
2026-04-26 01:10 28.03002 30.23037 38968 ft 532 kts 155°
2026-04-26 01:11 27.96981 30.27922 38981 ft 532 kts 155°
2026-04-26 01:11 27.90962 30.32800 38983 ft 532 kts 155°
2026-04-26 01:12 27.84943 30.37671 38975 ft 531 kts 155°
2026-04-26 01:12 27.78972 30.42498 38975 ft 530 kts 155°
2026-04-26 01:13 27.72968 30.47346 38985 ft 529 kts 155°
2026-04-26 01:13 27.66976 30.52174 38984 ft 529 kts 155°
2026-04-26 01:14 27.60983 30.56997 38990 ft 529 kts 155°
2026-04-26 01:14 27.55036 30.61777 38978 ft 528 kts 155°
2026-04-26 01:15 27.49044 30.66588 38993 ft 528 kts 155°
2026-04-26 01:15 27.43056 30.71388 38993 ft 528 kts 155°
2026-04-26 01:16 27.37059 30.76188 38996 ft 528 kts 155°
2026-04-26 01:16 27.31104 30.80949 38995 ft 528 kts 155°
2026-04-26 01:17 27.25111 30.85734 39000 ft 528 kts 155°
2026-04-26 01:17 27.19118 30.90512 39002 ft 527 kts 155°
2026-04-26 01:18 27.13127 30.95283 38993 ft 527 kts 155°
2026-04-26 01:18 27.07142 31.00042 38993 ft 527 kts 156°
2026-04-26 01:19 27.01564 31.05507 38996 ft 548 kts 141°
2026-04-26 01:19 26.96593 31.12067 38993 ft 553 kts 139°
2026-04-26 01:20 26.91755 31.18801 38993 ft 554 kts 138°
2026-04-26 01:20 26.86919 31.25533 38984 ft 554 kts 138°
2026-04-26 01:21 26.82059 31.32234 38977 ft 554 kts 139°
2026-04-26 01:21 26.77217 31.38873 38977 ft 554 kts 139°
2026-04-26 01:22 26.72334 31.45555 38966 ft 554 kts 139°
2026-04-26 01:22 26.67447 31.52234 38957 ft 554 kts 139°
2026-04-26 01:23 26.62562 31.58901 38952 ft 555 kts 139°
2026-04-26 01:23 26.57663 31.65578 38944 ft 555 kts 139°
2026-04-26 01:24 26.52796 31.72203 38943 ft 555 kts 139°
2026-04-26 01:24 26.47893 31.78866 38929 ft 555 kts 139°
2026-04-26 01:25 26.42981 31.85529 38925 ft 555 kts 139°
2026-04-26 01:25 26.38070 31.92182 38925 ft 556 kts 139°
2026-04-26 01:26 26.33180 31.98796 38917 ft 556 kts 139°
2026-04-26 01:26 26.28257 32.05448 38917 ft 556 kts 139°
2026-04-26 01:27 26.23337 32.12085 38913 ft 556 kts 139°
2026-04-26 01:27 26.18407 32.18727 38904 ft 556 kts 139°
2026-04-26 01:28 26.13473 32.25362 38903 ft 556 kts 139°
2026-04-26 01:28 26.08540 32.31988 38901 ft 555 kts 139°
2026-04-26 01:29 26.03642 32.38560 38890 ft 555 kts 139°
2026-04-26 01:29 25.98709 32.45165 38892 ft 554 kts 139°
2026-04-26 01:30 25.93777 32.51759 38888 ft 554 kts 139°
2026-04-26 01:30 25.88869 32.58308 38884 ft 554 kts 139°
2026-04-26 01:31 25.83937 32.64889 38878 ft 554 kts 139°
2026-04-26 01:31 25.79008 32.71454 38884 ft 553 kts 139°
2026-04-26 01:32 25.74220 32.78177 38888 ft 560 kts 133°
2026-04-26 01:32 25.69836 32.85342 38889 ft 561 kts 131°
2026-04-26 01:33 25.65537 32.92572 38882 ft 561 kts 131°
2026-04-26 01:33 25.61268 32.99755 38889 ft 561 kts 131°
2026-04-26 01:34 25.56952 33.06959 38886 ft 561 kts 131°
2026-04-26 01:34 25.52635 33.14166 38897 ft 561 kts 131°
2026-04-26 01:35 25.48306 33.21385 38900 ft 562 kts 131°
2026-04-26 01:35 25.43997 33.28551 38904 ft 562 kts 131°
2026-04-26 01:36 25.39660 33.35752 38903 ft 562 kts 131°
2026-04-26 01:37 25.33168 33.46509 38911 ft 562 kts 131°
2026-04-26 01:37 25.28825 33.53700 38915 ft 562 kts 131°
2026-04-26 01:38 25.24479 33.60881 38926 ft 561 kts 131°
2026-04-26 01:38 25.20133 33.68048 38914 ft 561 kts 131°
2026-04-26 01:39 25.15786 33.75205 38926 ft 560 kts 131°
2026-04-26 01:39 25.11438 33.82355 38913 ft 560 kts 131°
2026-04-26 01:40 25.07115 33.89457 38930 ft 560 kts 131°
2026-04-26 01:40 25.02765 33.96590 38918 ft 560 kts 131°
2026-04-26 01:41 24.98414 34.03714 38941 ft 559 kts 131°
2026-04-26 01:41 24.94063 34.10830 38939 ft 559 kts 131°
2026-04-26 01:42 24.89735 34.17893 38942 ft 559 kts 131°
2026-04-26 01:42 24.85376 34.24998 38935 ft 559 kts 131°
2026-04-26 01:43 24.81019 34.32090 38937 ft 558 kts 131°
2026-04-26 01:43 24.76671 34.39158 38945 ft 557 kts 131°
2026-04-26 01:44 24.72351 34.46167 38948 ft 556 kts 131°
2026-04-26 01:44 24.68005 34.53209 38939 ft 556 kts 131°
2026-04-26 01:45 24.63660 34.60242 38947 ft 556 kts 131°
2026-04-26 01:45 24.59306 34.67278 38945 ft 556 kts 131°
2026-04-26 01:46 24.54983 34.74253 38930 ft 555 kts 131°
2026-04-26 01:46 24.50634 34.81261 38927 ft 555 kts 131°
2026-04-26 01:47 24.46274 34.88275 38927 ft 555 kts 131°
2026-04-26 01:47 24.41926 34.95291 38942 ft 555 kts 131°
2026-04-26 01:48 24.37569 35.02279 38905 ft 555 kts 131°
2026-04-26 01:48 24.33229 35.09212 38912 ft 553 kts 131°
2026-04-26 01:49 24.28868 35.16182 38904 ft 553 kts 131°
2026-04-26 01:49 24.25248 35.21963 38911 ft 554 kts 131°
2026-04-26 01:50 24.20884 35.28928 38903 ft 554 kts 131°
2026-04-26 01:50 24.16519 35.35884 38897 ft 553 kts 131°
2026-04-26 01:51 24.12180 35.42789 38894 ft 553 kts 131°
2026-04-26 01:51 24.07815 35.49725 38895 ft 553 kts 131°